Location: Celina Elementary School
(33.3262°N, 96.7767°W)
Time: 08:56:12
(UTC+00:00)

COSMOS 2455 - Pass Details

Date: 26 November 2021
Orbit: 898 x 911 km, 67.1° (Epoch: 19 January)

Event Time Altitude Azimuth Distance (km) Brightness Sun altitude
Exits shadow 12:28:18 - 312° (NW) 2,769 4.8 -8.6°
Reaches altitude 10° 12:28:51 10° 309° (NW) 2,599 4.6 -8.5°
Maximum altitude 12:33:46 27° 254° (WSW) 1,680 3.8 -7.6°
Drops below altitude 10° 12:38:41 10° 199° (SSW) 2,585 5.3 -6.6°
Sets 12:41:33 0° 187° (S) 3,521 6.1 -6.1°
